Regional Weather Roundup
Issued by NWS Northern Indiana

Home | Current Version | Previous Version | Graphics & Text | Print | Product List | Glossary On
Versions: 1 2 3 4 5 6 7 8 9 10 11 12 13 14 15 16 17 18 19 20 21 22 23 24 25 26 27 28 29 30 31 32 33 34 35 36 37 38 39 40 41 42 43 44 45 46 47 48 49 50
000
ASUS43 KIWX 231100
RWRIWX

KIWX WEATHER ROUNDUP
NATIONAL WEATHER SERVICE NORTHERN INDIANA
700 AM EDT WED JUL 23 2014

NOTE: "FAIR" INDICATES FEW OR NO CLOUDS BELOW 12,000 FEET WITH NO
SIGNIFICANT WEATHER AND/OR OBSTRUCTIONS TO VISIBILITY.

* THESE STATIONS ARE NOT UNDER NWS QUALITY CONTROL. THEY ALSO MAY NOT
  REPORT WEATHER SUCH AS PRECIPITATION OR FOG.

INZ001>027-231200-
NORTHERN INDIANA

CITY           SKY/WX    TMP DP  RH WIND       PRES   REMARKS
GARY*          MOCLDY    66  59  77 N14G28    30.09R
VALPARAISO     CLOUDY    64  62  93 N8G17     30.05R
KNOX*          CLOUDY    66  64  93 N13       30.02R
SOUTH BEND     CLOUDY    68  65  90 N17       30.04R
GOSHEN         CLOUDY    70  67  90 N9        30.01S
MONTICELLO*    CLOUDY    69  69  98 NW8       30.00R
WARSAW*        CLOUDY    68  68 100 CALM      30.01R
ANGOLA*        CLOUDY    70  61  73 CALM      30.02S
FORT WAYNE     LGT RAIN  69  66  90 W8        30.00R
PERU/GRISSOM   CLOUDY    69  69 100 W14       29.99F

$$
INZ028>050-231200-
CENTRAL INDIANA

CITY           SKY/WX    TMP DP  RH WIND       PRES   REMARKS
LAFAYETTE      CLOUDY    70  70 100 W5        29.99F FOG
KOKOMO*        CLOUDY    70  66  88 NW6       29.98F
MUNCIE*        LGT RAIN  72  65  78 S7        30.00F
INDIANAPOLIS   LGT RAIN  73  70  90 NE12      30.02S

$$
MIZ043>046-050>051-056>058-064>065-071>073-077>080-231200-
SOUTHWEST LOWER MICHIGAN

CITY           SKY/WX    TMP DP  RH WIND       PRES   REMARKS
BATTLE CREEK   CLOUDY    66  58  75 N12       30.06R
BENTON HARBOR  CLOUDY    64  59  83 N8        30.06R
COLDWATER*     CLOUDY    70  68  93 CALM      30.03R
HILLSDALE*     CLOUDY    69  68  96 CALM      30.04R
HOLLAND        MOCLDY    63  57  81 N7        30.08R
GRAND RAPIDS   MOCLDY    63  57  81 N12       30.08R
KALAMAZOO      CLOUDY    66  62  87 N12       30.05R
STURGIS*       CLOUDY    68  66  94 CALM      30.03R FOG
THREE RIVERS*  CLOUDY    69  68  98 N7        30.04R FOG

$$
OHZ001>008-015>018-024>025-231200-
NORTHWEST OHIO

CITY           SKY/WX    TMP DP  RH WIND       PRES   REMARKS
DEFIANCE       LGT RAIN  72  66  81 VRB3      30.01F
FINDLAY        LGT RAIN  71  68  90 SW7       30.03R FOG
TOLEDO EXPRESS CLOUDY    72  68  87 W7        29.98S
TOLEDO METCALF CLOUDY    73  68  84 W8        29.99R
LIMA           LGT RAIN  71  66  84 S8        30.04R

$$
&&


USA.gov is the U.S. government's official web portal to all federal, state and local government web resources and services.